Flag for USA

Past Weather in 61°13'25"N, 149°50'24"W, USA — Yesterday and Last 2 Weeks

Now
56 °F

Low clouds.


Feels Like: 55 °F
Forecast: 66 / 57 °F
Wind: 5 mph from Northeast

Location: Lake Hood Seaplane

Current Time: Aug 3, 2020 at 7:48:47 am

Latest Report: Aug 3, 2020 at 6:53 am


Visibility: 10 mi

Pressure: 29.75 "Hg

Humidity: 97%

Dew Point: 55 °F

Location of 61°13'25"N, 149°50'24"WLocation

Past Weather in 61°13'25"N, 149°50'24"W — Graph

°F

61°13'25"N, 149°50'24"W Temperature Yesterday

Maximum temperature yesterday: 68 °F (at 2:53 pm)
Minimum temperature yesterday: 57 °F (at 3:53 am)
Average temperature yesterday: 59 °F

High & Low Weather Summary for the Past Weeks

 TemperatureHumidityPressure
High75 °F (Jul 29, 3:53 pm)100% (Aug 2, 3:53 am)30.09 "Hg (Aug 2, 3:53 am)
Low51 °F (Jul 23, 3:53 am)40% (Jul 21, 4:53 pm)29.63 "Hg (Aug 2, 6:13 am)
Average61 °F75%29.83 "Hg
* Reported Jul 19 6:53 am — Aug 3 6:35 am, 61°13'25"N, 149°50'24"W. Weather by CustomWeather, © 2020

Note: Actual official high and low records may vary slightly from our data, if they occured in-between our weather recording intervals... More about our weather records

61°13'25"N, 149°50'24"W Weather History for the Previous 24 Hours

Scroll right to see more
 ConditionsComfort  
Time TempWeatherWind HumidityBarometerVisibility
6:35 am
Mon, Aug 3
56 °FCloudy.No wind97%29.75 "Hg10 mi
5:53 am55 °FOvercast.No wind100%29.74 "Hg10 mi
4:53 am55 °FPassing clouds.No wind93%29.74 "Hg10 mi
3:53 am56 °FOvercast.3 mph93%29.75 "Hg10 mi
2:53 am57 °FMostly cloudy.No wind93%29.74 "Hg10 mi
1:53 am57 °FOvercast.No wind93%29.75 "Hg10 mi
12:53 am57 °FOvercast.No wind93%29.74 "Hg10 mi
11:53 pm
Sun, Aug 2
58 °FLight rain. Mostly cloudy.5 mph84%29.73 "Hg10 mi
10:53 pm58 °FLight rain. Overcast.5 mph84%29.72 "Hg10 mi
9:53 pm59 °FOvercast.7 mph81%29.71 "Hg10 mi
8:53 pm59 °FMostly cloudy.9 mph81%29.70 "Hg10 mi
7:53 pm59 °FLight rain. Overcast.8 mph87%29.70 "Hg10 mi
6:53 pm58 °FLight rain. Fog.9 mph87%29.70 "Hg6 mi
5:53 pm60 °FLight rain. Overcast.14 mph80%29.68 "Hg8 mi
4:53 pm64 °FOvercast.7 mph63%29.67 "Hg10 mi
3:53 pm67 °FCloudy.5 mph59%29.66 "Hg10 mi
2:53 pm68 °FOvercast.8 mph61%29.66 "Hg10 mi
1:53 pm67 °FOvercast.8 mph63%29.66 "Hg10 mi
12:53 pm63 °FOvercast.10 mph70%29.67 "Hg10 mi
11:53 am61 °FOvercast.9 mph78%29.67 "Hg10 mi
10:53 am60 °FOvercast.8 mph86%29.67 "Hg10 mi
9:53 am59 °FOvercast.8 mph87%29.66 "Hg10 mi
9:25 am58 °FLow clouds.No wind93%29.66 "Hg10 mi
8:53 am57 °FMostly cloudy.6 mph93%29.65 "Hg10 mi
8:44 am57 °FMostly cloudy.No wind96%29.65 "Hg10 mi
8:09 am57 °FLight rain. Low clouds.No wind96%29.64 "Hg10 mi
7:53 am57 °FMostly cloudy.3 mph96%29.64 "Hg10 mi
Weather by CustomWeather, © 2020

See weather overview